QPF
0.00 0.00 0.00 0.00 0.00 0.01 0.01 0.01 0.01 0.00 0.00 0.00 0.00 0.00 0.00 0.00 0.03 0.08 0.04 0.02 0.02 0.02 0.00 0.00 0.01 0.00 0.01 0.01 0.01 0.01 0.01 0.01 0.01 0.01 0.02 0.02 0.03 0.05 0.04 0.03 0.04 0.06 0.09 0.10 0.09 0.09 0.10 0.11 0.10
0.00 0.00 0.00 0.00 0.00 0.01 0.01 0.02 0.03 0.01 0.00 0.00 0.00 0.00 0.01 0.02 0.03 0.03 0.02 0.01 0.01 0.03 0.02 0.01 0.01 0.01 0.01 0.01 0.01 0.01 0.00 0.01 0.01 0.01 0.01 0.02 0.03 0.03 0.04 0.05 0.05 0.07 0.09 0.10 0.10 0.10 0.11 0.12 0.10
0.00 0.00 0.00 0.00 0.00 0.01 0.04 0.05 0.02 0.00 0.00 0.00 0.00 0.00 0.03 0.03 0.02 0.01 0.01 0.01 0.01 0.02 0.04 0.02 0.01 0.01 0.01 0.01 0.01 0.01 0.01 0.01 0.01 0.01 0.01 0.01 0.02 0.03 0.02 0.04 0.04 0.05 0.07 0.09 0.09 0.07 0.08 0.09 0.10
0.00 0.00 0.00 0.00 0.00 0.00 0.01 0.01 0.01 0.01 0.00 0.00 0.00 0.01 0.03 0.01 0.01 0.01 0.00 0.01 0.02 0.03 0.04 0.02 0.01 0.01 0.01 0.01 0.01 0.01 0.01 0.02 0.01 0.02 0.02 0.02 0.02 0.03 0.03 0.03 0.04 0.06 0.06 0.07 0.06 0.05 0.05 0.06 0.07
0.00 0.00 0.00 0.00 0.00 0.00 0.00 0.00 0.02 0.02 0.00 0.00 0.00 0.01 0.01 0.01 0.00 0.00 0.00 0.00 0.01 0.03 0.10 0.05 0.01 0.01 0.01 0.01 0.01 0.02 0.02 0.02 0.02 0.02 0.02 0.02 0.02 0.03 0.03 0.03 0.04 0.06 0.06 0.06 0.05 0.04 0.04 0.04 0.05
0.00 0.00 0.00 0.00 0.00 0.00 0.00 0.00 0.00 0.00 0.00 0.00 0.00 0.01 0.00 0.00 0.00 0.01 0.01 0.00 0.01 0.03 0.05 0.02 0.01 0.02 0.02 0.01 0.02 0.03 0.03 0.02 0.03 0.03 0.03 0.02 0.03 0.03 0.03 0.02 0.04 0.06 0.06 0.06 0.05 0.04 0.03 0.03 0.03
0.00 0.00 0.00 0.00 0.00 0.00 0.00 0.00 0.00 0.00 0.00 0.00 0.00 0.00 0.00 0.00 0.00 0.00 0.00 0.00 0.00 0.01 0.01 0.02 0.01 0.01 0.01 0.01 0.04 0.03 0.03 0.03 0.03 0.02 0.03 0.03 0.02 0.02 0.03 0.03 0.03 0.06 0.07 0.06 0.05 0.05 0.04 0.04 0.04
0.00 0.00 0.00 0.00 0.00 0.00 0.00 0.00 0.00 0.00 0.00 0.00 0.00 0.01 0.02 0.00 0.00 0.01 0.02 0.01 0.01 0.00 0.00 0.01 0.02 0.01 0.01 0.01 0.01 0.02 0.02 0.02 0.02 0.02 0.03 0.02 0.02 0.02 0.02 0.03 0.04 0.07 0.09 0.06 0.05 0.04 0.04 0.05 0.05
0.00 0.00 0.00 0.00 0.00 0.00 0.00 0.00 0.00 0.00 0.00 0.00 0.00 0.01 0.02 0.00 0.00 0.01 0.03 0.02 0.02 0.01 0.01 0.00 0.01 0.01 0.01 0.01 0.01 0.02 0.02 0.02 0.02 0.02 0.04 0.05 0.07 0.06 0.04 0.04 0.04 0.10 0.11 0.09 0.07 0.03 0.03 0.03 0.04
0.00 0.01 0.00 0.00 0.00 0.00 0.00 0.00 0.00 0.00 0.00 0.00 0.01 0.01 0.01 0.00 0.00 0.00 0.02 0.02 0.02 0.03 0.02 0.01 0.00 0.01 0.02 0.02 0.03 0.02 0.02 0.02 0.02 0.03 0.04 0.06 0.10 0.09 0.05 0.04 0.05 0.15 0.13 0.08 0.06 0.04 0.03 0.04 0.04
0.00 0.01 0.00 0.00 0.00 0.00 0.00 0.00 0.00 0.00 0.00 0.00 0.00 0.00 0.00 0.00 0.00 0.00 0.01 0.01 0.01 0.01 0.02 0.02 0.02 0.01 0.01 0.04 0.05 0.05 0.04 0.05 0.05 0.06 0.07 0.09 0.10 0.10 0.09 0.07 0.07 0.13 0.12 0.10 0.09 0.07 0.05 0.06 0.05
0.00 0.00 0.00 0.00 0.00 0.00 0.00 0.00 0.00 0.00 0.00 0.00 0.00 0.01 0.00 0.00 0.00 0.00 0.00 0.01 0.02 0.01 0.01 0.01 0.01 0.02 0.02 0.02 0.04 0.05 0.05 0.05 0.05 0.07 0.11 0.11 0.13 0.14 0.12 0.10 0.09 0.10 0.10 0.12 0.10 0.09 0.07 0.07 0.05
0.00 0.00 0.00 0.00 0.00 0.00 0.00 0.00 0.00 0.00 0.00 0.00 0.00 0.01 0.02 0.00 0.00 0.00 0.00 0.03 0.02 0.02 0.00 0.01 0.02 0.04 0.04 0.04 0.04 0.04 0.05 0.06 0.06 0.06 0.08 0.14 0.13 0.11 0.13 0.13 0.14 0.11 0.10 0.08 0.08 0.06 0.06 0.06 0.06
0.00 0.00 0.00 0.00 0.00 0.00 0.00 0.00 0.00 0.00 0.00 0.00 0.00 0.00 0.01 0.00 0.00 0.00 0.00 0.01 0.02 0.02 0.01 0.01 0.02 0.03 0.04 0.05 0.05 0.05 0.06 0.08 0.08 0.08 0.07 0.08 0.09 0.09 0.10 0.12 0.13 0.11 0.11 0.09 0.08 0.06 0.06 0.05 0.07
0.00 0.00 0.00 0.00 0.00 0.00 0.00 0.00 0.00 0.00 0.00 0.00 0.00 0.00 0.00 0.00 0.00 0.00 0.00 0.01 0.01 0.01 0.01 0.01 0.01 0.02 0.03 0.04 0.04 0.05 0.07 0.08 0.10 0.12 0.10 0.09 0.07 0.06 0.08 0.10 0.10 0.08 0.08 0.08 0.08 0.08 0.07 0.07 0.06
0.00 0.00 0.00 0.00 0.00 0.00 0.00 0.00 0.00 0.00 0.00 0.00 0.00 0.00 0.00 0.00 0.00 0.01 0.01 0.01 0.01 0.01 0.01 0.01 0.00 0.01 0.03 0.04 0.04 0.06 0.06 0.08 0.11 0.14 0.14 0.11 0.09 0.07 0.08 0.08 0.08 0.08 0.08 0.07 0.07 0.08 0.08 0.08 0.07
0.01 0.02 0.02 0.01 0.00 0.00 0.00 0.00 0.00 0.00 0.00 0.00 0.00 0.00 0.00 0.00 0.01 0.03 0.03 0.01 0.01 0.01 0.01 0.01 0.01 0.01 0.02 0.04 0.05 0.05 0.06 0.06 0.06 0.08 0.10 0.11 0.09 0.08 0.09 0.10 0.10 0.09 0.09 0.08 0.07 0.07 0.05 0.06 0.06
0.02 0.03 0.05 0.02 0.00 0.00 0.00 0.00 0.00 0.00 0.00 0.00 0.00 0.00 0.00 0.00 0.00 0.01 0.01 0.01 0.01 0.01 0.01 0.01 0.02 0.02 0.03 0.04 0.05 0.07 0.08 0.06 0.05 0.04 0.06 0.06 0.07 0.07 0.09 0.11 0.11 0.11 0.11 0.12 0.12 0.10 0.07 0.06 0.05
0.00 0.00 0.01 0.00 0.00 0.00 0.00 0.00 0.00 0.00 0.00 0.00 0.00 0.00 0.00 0.00 0.00 0.00 0.01 0.01 0.01 0.01 0.01 0.02 0.02 0.02 0.03 0.03 0.05 0.08 0.09 0.08 0.05 0.05 0.05 0.06 0.05 0.06 0.08 0.09 0.10 0.10 0.11 0.13 0.12 0.10 0.08 0.07 0.06
0.00 0.00 0.00 0.00 0.00 0.00 0.00 0.00 0.00 0.00 0.00 0.01 0.01 0.00 0.00 0.00 0.00 0.01 0.01 0.01 0.01 0.01 0.01 0.01 0.02 0.03 0.04 0.04 0.04 0.05 0.06 0.06 0.04 0.03 0.04 0.06 0.06 0.05 0.06 0.08 0.09 0.10 0.11 0.13 0.14 0.11 0.09 0.06 0.06
0.00 0.00 0.00 0.00 0.00 0.00 0.00 0.01 0.01 0.00 0.01 0.02 0.01 0.01 0.00 0.00 0.00 0.01 0.02 0.02 0.01 0.01 0.00 0.01 0.02 0.03 0.04 0.05 0.05 0.06 0.06 0.05 0.05 0.05 0.05 0.06 0.06 0.05 0.05 0.07 0.09 0.09 0.08 0.09 0.10 0.09 0.08 0.07 0.06
0.00 0.00 0.00 0.00 0.00 0.00 0.01 0.03 0.04 0.03 0.03 0.02 0.01 0.03 0.03 0.02 0.03 0.04 0.03 0.02 0.02 0.01 0.00 0.01 0.02 0.03 0.04 0.05 0.06 0.11 0.15 0.14 0.10 0.08 0.06 0.05 0.05 0.05 0.05 0.06 0.08 0.09 0.08 0.10 0.08 0.09 0.09 0.10 0.10
0.00 0.00 0.00 0.00 0.00 0.01 0.01 0.03 0.07 0.07 0.08 0.04 0.02 0.03 0.07 0.06 0.07 0.07 0.05 0.02 0.01 0.02 0.00 0.01 0.02 0.03 0.04 0.06 0.07 0.10 0.13 0.12 0.09 0.07 0.07 0.08 0.08 0.07 0.06 0.06 0.06 0.08 0.09 0.10 0.10 0.11 0.09 0.08 0.08
0.00 0.00 0.00 0.00 0.00 0.01 0.01 0.03 0.07 0.11 0.09 0.05 0.05 0.05 0.05 0.04 0.05 0.08 0.07 0.04 0.03 0.02 0.01 0.01 0.02 0.02 0.03 0.04 0.04 0.05 0.06 0.08 0.09 0.07 0.07 0.07 0.08 0.07 0.06 0.06 0.07 0.08 0.10 0.11 0.10 0.09 0.07 0.07 0.05
0.00 0.00 0.01 0.02 0.03 0.02 0.02 0.04 0.07 0.08 0.08 0.07 0.10 0.08 0.03 0.06 0.04 0.04 0.05 0.03 0.03 0.03 0.03 0.02 0.03 0.02 0.02 0.02 0.03 0.04 0.05 0.07 0.08 0.08 0.08 0.09 0.08 0.06 0.05 0.06 0.08 0.07 0.07 0.09 0.12 0.10 0.09 0.08 0.06
0.00 0.00 0.02 0.03 0.03 0.04 0.05 0.06 0.08 0.10 0.10 0.11 0.09 0.05 0.03 0.04 0.03 0.03 0.02 0.02 0.02 0.04 0.04 0.03 0.03 0.03 0.02 0.03 0.04 0.05 0.06 0.07 0.07 0.08 0.08 0.09 0.08 0.06 0.06 0.06 0.06 0.06 0.05 0.07 0.09 0.10 0.11 0.10 0.08
0.00 0.00 0.00 0.01 0.02 0.04 0.05 0.06 0.05 0.08 0.12 0.08 0.03 0.02 0.03 0.04 0.04 0.03 0.01 0.01 0.02 0.04 0.05 0.03 0.03 0.03 0.04 0.05 0.06 0.06 0.07 0.08 0.07 0.08 0.08 0.09 0.08 0.07 0.07 0.06 0.06 0.07 0.06 0.07 0.07 0.08 0.08 0.10 0.10
0.00 0.00 0.00 0.02 0.04 0.05 0.07 0.09 0.08 0.08 0.07 0.07 0.05 0.03 0.03 0.04 0.04 0.03 0.03 0.01 0.02 0.02 0.03 0.03 0.04 0.03 0.04 0.05 0.05 0.04 0.06 0.07 0.07 0.07 0.05 0.06 0.06 0.07 0.07 0.07 0.07 0.08 0.08 0.07 0.07 0.07 0.07 0.08 0.09
0.00 0.00 0.01 0.03 0.04 0.06 0.08 0.11 0.11 0.14 0.13 0.10 0.05 0.02 0.02 0.04 0.05 0.05 0.05 0.02 0.02 0.02 0.02 0.02 0.02 0.03 0.04 0.04 0.05 0.05 0.05 0.05 0.05 0.06 0.05 0.05 0.07 0.08 0.08 0.07 0.07 0.08 0.07 0.06 0.07 0.07 0.07 0.07 0.07
0.00 0.00 0.01 0.05 0.06 0.07 0.08 0.09 0.07 0.09 0.11 0.10 0.04 0.01 0.01 0.03 0.05 0.06 0.10 0.08 0.04 0.03 0.03 0.02 0.02 0.03 0.05 0.05 0.05 0.04 0.05 0.05 0.05 0.05 0.05 0.05 0.08 0.10 0.09 0.08 0.07 0.07 0.07 0.07 0.07 0.06 0.07 0.06 0.06
MSLP
1002.74 1003.27 1003.96 1004.65 1005.19 1005.48 1005.50 1005.30 1004.98 1004.67 1004.48 1004.47 1004.63 1004.88 1005.13 1005.27 1005.22 1004.99 1004.62 1004.23 1003.94 1003.85 1004.02 1004.43 1005.00 1005.61 1006.13 1006.46 1006.55 1006.43 1006.15 1005.82 1005.55 1005.39 1005.37 1005.46 1005.59 1005.72 1005.78 1005.76 1005.69 1005.64 1005.69 1005.91 1006.35 1007.02 1007.88 1008.85 1009.85
1002.86 1003.52 1004.27 1004.95 1005.43 1005.62 1005.52 1005.20 1004.77 1004.37 1004.10 1004.01 1004.10 1004.29 1004.49 1004.59 1004.55 1004.36 1004.09 1003.81 1003.66 1003.70 1003.97 1004.45 1005.05 1005.65 1006.14 1006.43 1006.50 1006.38 1006.13 1005.85 1005.62 1005.51 1005.52 1005.61 1005.73 1005.83 1005.87 1005.85 1005.81 1005.82 1005.94 1006.25 1006.78 1007.50 1008.38 1009.35 1010.31
1003.14 1003.89 1004.65 1005.28 1005.64 1005.70 1005.47 1005.02 1004.50 1004.03 1003.71 1003.58 1003.62 1003.75 1003.89 1003.96 1003.90 1003.72 1003.49 1003.30 1003.24 1003.38 1003.73 1004.26 1004.89 1005.49 1005.97 1006.27 1006.35 1006.27 1006.08 1005.86 1005.70 1005.63 1005.65 1005.73 1005.83 1005.89 1005.91 1005.90 1005.90 1005.99 1006.22 1006.65 1007.27 1008.07 1008.97 1009.91 1010.81
1003.56 1004.33 1005.05 1005.56 1005.79 1005.69 1005.33 1004.80 1004.22 1003.73 1003.40 1003.25 1003.27 1003.36 1003.44 1003.45 1003.34 1003.14 1002.92 1002.76 1002.75 1002.95 1003.36 1003.92 1004.57 1005.18 1005.67 1005.98 1006.11 1006.08 1005.97 1005.83 1005.74 1005.70 1005.73 1005.79 1005.85 1005.87 1005.88 1005.88 1005.95 1006.14 1006.50 1007.06 1007.79 1008.66 1009.58 1010.49 1011.31
1004.02 1004.76 1005.37 1005.74 1005.81 1005.58 1005.12 1004.53 1003.95 1003.49 1003.20 1003.09 1003.10 1003.16 1003.19 1003.13 1002.95 1002.70 1002.45 1002.30 1002.31 1002.53 1002.96 1003.54 1004.19 1004.80 1005.29 1005.63 1005.79 1005.83 1005.79 1005.73 1005.69 1005.69 1005.72 1005.76 1005.78 1005.78 1005.77 1005.81 1005.96 1006.26 1006.75 1007.44 1008.28 1009.21 1010.15 1011.02 1011.76
1004.44 1005.08 1005.55 1005.75 1005.67 1005.32 1004.81 1004.23 1003.71 1003.34 1003.14 1003.09 1003.14 1003.19 1003.17 1003.04 1002.79 1002.47 1002.18 1002.01 1002.01 1002.24 1002.67 1003.24 1003.87 1004.47 1004.95 1005.28 1005.48 1005.55 1005.57 1005.57 1005.58 1005.61 1005.64 1005.65 1005.65 1005.63 1005.63 1005.71 1005.93 1006.34 1006.95 1007.75 1008.69 1009.67 1010.62 1011.45 1012.13
1004.73 1005.22 1005.51 1005.54 1005.32 1004.91 1004.39 1003.88 1003.48 1003.25 1003.19 1003.24 1003.35 1003.40 1003.35 1003.16 1002.84 1002.48 1002.16 1001.97 1001.97 1002.20 1002.62 1003.17 1003.76 1004.31 1004.75 1005.06 1005.23 1005.32 1005.36 1005.40 1005.44 1005.48 1005.52 1005.53 1005.51 1005.49 1005.50 1005.62 1005.91 1006.40 1007.11 1008.00 1009.00 1010.01 1010.96 1011.76 1012.39
1004.84 1005.15 1005.25 1005.11 1004.79 1004.35 1003.88 1003.49 1003.25 1003.20 1003.29 1003.47 1003.64 1003.72 1003.65 1003.42 1003.07 1002.69 1002.36 1002.18 1002.21 1002.45 1002.87 1003.39 1003.94 1004.41 1004.78 1005.02 1005.15 1005.20 1005.24 1005.27 1005.33 1005.39 1005.44 1005.46 1005.44 1005.43 1005.46 1005.61 1005.95 1006.50 1007.26 1008.19 1009.23 1010.26 1011.20 1011.98 1012.58
1004.77 1004.88 1004.79 1004.52 1004.12 1003.69 1003.31 1003.08 1003.02 1003.16 1003.41 1003.71 1003.95 1004.05 1003.98 1003.74 1003.38 1003.01 1002.72 1002.60 1002.68 1002.97 1003.40 1003.91 1004.40 1004.80 1005.07 1005.21 1005.26 1005.25 1005.25 1005.27 1005.33 1005.41 1005.48 1005.52 1005.53 1005.53 1005.59 1005.76 1006.12 1006.69 1007.47 1008.41 1009.44 1010.46 1011.39 1012.16 1012.76
1004.55 1004.47 1004.22 1003.84 1003.40 1003.01 1002.75 1002.67 1002.80 1003.11 1003.51 1003.90 1004.19 1004.32 1004.25 1004.01 1003.69 1003.37 1003.16 1003.13 1003.31 1003.67 1004.14 1004.65 1005.09 1005.41 1005.58 1005.62 1005.57 1005.48 1005.43 1005.43 1005.49 1005.59 1005.69 1005.77 1005.81 1005.85 1005.93 1006.13 1006.48 1007.04 1007.80 1008.71 1009.71 1010.71 1011.61 1012.37 1012.98
1004.27 1004.03 1003.64 1003.18 1002.73 1002.40 1002.26 1002.34 1002.63 1003.07 1003.57 1004.03 1004.34 1004.47 1004.40 1004.18 1003.90 1003.66 1003.57 1003.66 1003.96 1004.42 1004.96 1005.48 1005.90 1006.16 1006.24 1006.18 1006.04 1005.88 1005.77 1005.75 1005.82 1005.95 1006.10 1006.23 1006.33 1006.42 1006.53 1006.73 1007.08 1007.61 1008.32 1009.18 1010.12 1011.07 1011.95 1012.70 1013.32
1004.01 1003.63 1003.14 1002.64 1002.21 1001.95 1001.91 1002.12 1002.53 1003.07 1003.63 1004.10 1004.41 1004.52 1004.44 1004.24 1004.01 1003.86 1003.87 1004.09 1004.52 1005.09 1005.70 1006.27 1006.68 1006.91 1006.93 1006.81 1006.60 1006.39 1006.25 1006.22 1006.31 1006.48 1006.69 1006.89 1007.06 1007.21 1007.36 1007.58 1007.92 1008.41 1009.06 1009.85 1010.72 1011.61 1012.45 1013.19 1013.82
1003.84 1003.36 1002.81 1002.28 1001.88 1001.69 1001.75 1002.06 1002.55 1003.14 1003.71 1004.17 1004.45 1004.52 1004.42 1004.22 1004.02 1003.95 1004.06 1004.40 1004.93 1005.59 1006.28 1006.89 1007.32 1007.54 1007.55 1007.40 1007.17 1006.95 1006.81 1006.80 1006.92 1007.15 1007.42 1007.70 1007.95 1008.17 1008.38 1008.63 1008.96 1009.42 1010.01 1010.73 1011.53 1012.35 1013.14 1013.86 1014.48
1003.78 1003.24 1002.66 1002.14 1001.78 1001.66 1001.79 1002.17 1002.70 1003.31 1003.86 1004.28 1004.51 1004.53 1004.40 1004.20 1004.03 1004.00 1004.18 1004.58 1005.18 1005.90 1006.64 1007.28 1007.74 1007.98 1008.01 1007.88 1007.68 1007.49 1007.39 1007.42 1007.60 1007.88 1008.23 1008.59 1008.93 1009.23 1009.50 1009.79 1010.13 1010.57 1011.12 1011.77 1012.50 1013.26 1013.99 1014.68 1015.28
1003.82 1003.25 1002.66 1002.16 1001.86 1001.80 1002.00 1002.41 1002.97 1003.56 1004.09 1004.46 1004.64 1004.62 1004.47 1004.27 1004.11 1004.11 1004.31 1004.73 1005.34 1006.07 1006.81 1007.46 1007.95 1008.23 1008.31 1008.24 1008.11 1007.99 1007.96 1008.05 1008.29 1008.64 1009.06 1009.50 1009.91 1010.29 1010.64 1010.98 1011.35 1011.78 1012.30 1012.90 1013.56 1014.25 1014.93 1015.56 1016.12
1003.91 1003.33 1002.75 1002.30 1002.06 1002.06 1002.30 1002.74 1003.29 1003.86 1004.35 1004.69 1004.84 1004.81 1004.66 1004.47 1004.33 1004.33 1004.52 1004.92 1005.49 1006.17 1006.87 1007.51 1008.00 1008.32 1008.47 1008.49 1008.46 1008.44 1008.50 1008.67 1008.97 1009.38 1009.85 1010.35 1010.84 1011.29 1011.70 1012.11 1012.52 1012.97 1013.47 1014.03 1014.63 1015.25 1015.85 1016.43 1016.94
1003.98 1003.41 1002.88 1002.49 1002.31 1002.36 1002.64 1003.07 1003.61 1004.14 1004.59 1004.91 1005.06 1005.06 1004.94 1004.80 1004.69 1004.70 1004.87 1005.22 1005.71 1006.30 1006.93 1007.51 1007.99 1008.34 1008.56 1008.69 1008.77 1008.86 1009.02 1009.28 1009.64 1010.09 1010.60 1011.13 1011.67 1012.18 1012.66 1013.12 1013.58 1014.05 1014.54 1015.06 1015.60 1016.15 1016.69 1017.19 1017.65
1003.98 1003.45 1002.99 1002.69 1002.58 1002.67 1002.95 1003.36 1003.84 1004.32 1004.73 1005.03 1005.21 1005.26 1005.23 1005.17 1005.13 1005.18 1005.34 1005.63 1006.04 1006.52 1007.04 1007.55 1008.00 1008.36 1008.65 1008.88 1009.08 1009.29 1009.55 1009.87 1010.28 1010.75 1011.28 1011.83 1012.40 1012.95 1013.48 1013.99 1014.48 1014.97 1015.46 1015.95 1016.43 1016.90 1017.36 1017.78 1018.18
1003.88 1003.44 1003.09 1002.89 1002.85 1002.97 1003.22 1003.56 1003.95 1004.34 1004.68 1004.96 1005.17 1005.30 1005.39 1005.46 1005.54 1005.67 1005.86 1006.13 1006.46 1006.85 1007.26 1007.68 1008.08 1008.45 1008.79 1009.11 1009.41 1009.73 1010.07 1010.46 1010.90 1011.38 1011.90 1012.46 1013.02 1013.59 1014.15 1014.70 1015.23 1015.73 1016.21 1016.66 1017.07 1017.47 1017.83 1018.18 1018.51
1003.70 1003.39 1003.19 1003.11 1003.14 1003.26 1003.45 1003.68 1003.92 1004.17 1004.40 1004.63 1004.86 1005.08 1005.31 1005.55 1005.80 1006.06 1006.33 1006.62 1006.92 1007.23 1007.56 1007.90 1008.25 1008.61 1008.99 1009.37 1009.77 1010.17 1010.59 1011.02 1011.48 1011.96 1012.47 1013.00 1013.56 1014.13 1014.71 1015.27 1015.82 1016.32 1016.78 1017.18 1017.53 1017.84 1018.11 1018.37 1018.64
1003.48 1003.36 1003.34 1003.40 1003.50 1003.61 1003.69 1003.75 1003.79 1003.83 1003.90 1004.03 1004.25 1004.55 1004.92 1005.35 1005.80 1006.24 1006.65 1007.01 1007.33 1007.61 1007.88 1008.16 1008.47 1008.82 1009.22 1009.65 1010.11 1010.58 1011.06 1011.53 1012.00 1012.47 1012.95 1013.46 1014.00 1014.56 1015.14 1015.71 1016.26 1016.76 1017.19 1017.54 1017.82 1018.04 1018.22 1018.39 1018.59
1003.28 1003.39 1003.59 1003.79 1003.96 1004.02 1003.97 1003.82 1003.60 1003.38 1003.24 1003.22 1003.39 1003.74 1004.24 1004.86 1005.53 1006.18 1006.76 1007.24 1007.62 1007.92 1008.17 1008.41 1008.69 1009.02 1009.42 1009.89 1010.39 1010.92 1011.44 1011.93 1012.41 1012.87 1013.33 1013.82 1014.33 1014.87 1015.45 1016.02 1016.56 1017.05 1017.45 1017.75 1017.96 1018.10 1018.20 1018.30 1018.43
1003.14 1003.51 1003.92 1004.28 1004.50 1004.51 1004.31 1003.93 1003.42 1002.92 1002.53 1002.34 1002.42 1002.78 1003.39 1004.18 1005.05 1005.91 1006.68 1007.30 1007.78 1008.12 1008.38 1008.60 1008.86 1009.17 1009.57 1010.05 1010.58 1011.13 1011.68 1012.20 1012.68 1013.14 1013.58 1014.04 1014.54 1015.07 1015.63 1016.19 1016.73 1017.20 1017.58 1017.84 1018.01 1018.08 1018.11 1018.14 1018.21
1003.07 1003.68 1004.30 1004.80 1005.07 1005.03 1004.69 1004.08 1003.32 1002.54 1001.91 1001.54 1001.52 1001.87 1002.54 1003.46 1004.50 1005.55 1006.49 1007.26 1007.84 1008.24 1008.51 1008.73 1008.96 1009.25 1009.63 1010.11 1010.64 1011.21 1011.78 1012.31 1012.80 1013.25 1013.69 1014.13 1014.61 1015.12 1015.67 1016.22 1016.75 1017.22 1017.58 1017.83 1017.96 1018.00 1017.99 1017.96 1017.99
1003.06 1003.87 1004.65 1005.26 1005.56 1005.49 1005.03 1004.25 1003.28 1002.30 1001.47 1000.96 1000.85 1001.17 1001.88 1002.89 1004.06 1005.25 1006.32 1007.21 1007.86 1008.31 1008.60 1008.80 1009.01 1009.27 1009.63 1010.08 1010.61 1011.18 1011.75 1012.29 1012.78 1013.23 1013.65 1014.08 1014.54 1015.04 1015.57 1016.12 1016.64 1017.10 1017.47 1017.72 1017.85 1017.89 1017.86 1017.82 1017.81
1003.07 1004.00 1004.88 1005.54 1005.87 1005.77 1005.25 1004.37 1003.29 1002.19 1001.26 1000.67 1000.51 1000.82 1001.56 1002.62 1003.86 1005.13 1006.28 1007.22 1007.92 1008.38 1008.67 1008.86 1009.03 1009.26 1009.59 1010.01 1010.52 1011.08 1011.64 1012.17 1012.66 1013.10 1013.51 1013.93 1014.36 1014.84 1015.35 1015.88 1016.40 1016.87 1017.26 1017.53 1017.69 1017.75 1017.74 1017.71 1017.70
1003.08 1004.01 1004.90 1005.56 1005.88 1005.77 1005.24 1004.36 1003.27 1002.17 1001.25 1000.67 1000.53 1000.86 1001.62 1002.70 1003.96 1005.24 1006.40 1007.35 1008.04 1008.50 1008.76 1008.92 1009.07 1009.26 1009.55 1009.94 1010.42 1010.96 1011.51 1012.02 1012.50 1012.92 1013.32 1013.71 1014.12 1014.56 1015.05 1015.56 1016.08 1016.56 1016.97 1017.28 1017.49 1017.61 1017.65 1017.66 1017.68
1003.07 1003.90 1004.68 1005.27 1005.54 1005.42 1004.93 1004.12 1003.13 1002.15 1001.35 1000.87 1000.82 1001.20 1001.99 1003.07 1004.31 1005.55 1006.66 1007.56 1008.22 1008.63 1008.87 1009.00 1009.11 1009.28 1009.54 1009.91 1010.36 1010.87 1011.40 1011.89 1012.35 1012.75 1013.12 1013.48 1013.85 1014.26 1014.72 1015.21 1015.71 1016.20 1016.63 1016.99 1017.27 1017.46 1017.58 1017.65 1017.72
1003.06 1003.67 1004.27 1004.70 1004.87 1004.74 1004.29 1003.61 1002.81 1002.03 1001.43 1001.14 1001.22 1001.70 1002.51 1003.58 1004.76 1005.92 1006.95 1007.77 1008.35 1008.72 1008.92 1009.03 1009.14 1009.30 1009.56 1009.91 1010.35 1010.84 1011.35 1011.82 1012.25 1012.62 1012.96 1013.29 1013.63 1014.00 1014.42 1014.88 1015.37 1015.85 1016.31 1016.71 1017.05 1017.31 1017.51 1017.67 1017.79
1003.08 1003.42 1003.74 1003.95 1003.98 1003.80 1003.41 1002.86 1002.27 1001.73 1001.38 1001.30 1001.55 1002.13 1002.97 1004.00 1005.11 1006.17 1007.09 1007.82 1008.33 1008.66 1008.85 1008.97 1009.09 1009.28 1009.56 1009.92 1010.37 1010.85 1011.34 1011.79 1012.20 1012.55 1012.86 1013.16 1013.47 1013.81 1014.19 1014.62 1015.08 1015.56 1016.03 1016.46 1016.85 1017.18 1017.45 1017.68 1017.88
Thickness
5837 5841 5841 5836 5819 5812 5811 5828 5840 5837 5841 5848 5849 5842 5829 5820 5808 5795 5827 5838 5832 5823 5814 5807 5803 5799 5796 5793 5791 5788 5786 5783 5781 5779 5777 5776 5774 5773 5771 5771 5770 5768 5766 5765 5763 5761 5760 5759 5758
5841 5845 5840 5829 5810 5794 5808 5831 5830 5833 5845 5852 5849 5842 5829 5821 5828 5826 5830 5834 5831 5822 5814 5807 5801 5797 5794 5791 5788 5786 5783 5781 5779 5777 5775 5773 5772 5770 5769 5767 5766 5765 5763 5762 5760 5759 5758 5757 5756
5841 5845 5831 5823 5810 5804 5812 5830 5833 5841 5850 5848 5840 5837 5828 5820 5828 5829 5833 5834 5829 5820 5811 5804 5799 5796 5792 5789 5786 5784 5781 5779 5776 5774 5773 5771 5769 5768 5766 5765 5763 5762 5761 5759 5758 5757 5755 5755 5754
5841 5840 5831 5820 5812 5828 5834 5836 5839 5837 5845 5848 5840 5826 5829 5837 5836 5835 5836 5834 5825 5817 5809 5801 5798 5794 5790 5787 5784 5782 5779 5777 5774 5772 5770 5769 5767 5765 5764 5762 5761 5759 5758 5757 5756 5755 5754 5753 5753
5842 5829 5817 5814 5821 5837 5846 5847 5845 5835 5838 5841 5836 5819 5818 5837 5842 5838 5835 5830 5823 5816 5808 5800 5796 5792 5788 5785 5783 5780 5777 5775 5772 5770 5768 5767 5765 5763 5762 5760 5759 5758 5756 5755 5754 5753 5752 5752 5751
5829 5828 5809 5806 5820 5838 5847 5852 5845 5839 5839 5841 5834 5819 5817 5836 5836 5835 5834 5829 5824 5816 5807 5799 5794 5790 5787 5784 5781 5778 5776 5773 5771 5768 5766 5765 5763 5761 5760 5759 5757 5756 5754 5753 5752 5751 5751 5750 5750
5822 5816 5810 5817 5823 5831 5843 5854 5845 5837 5834 5838 5841 5819 5817 5828 5834 5836 5834 5829 5824 5817 5807 5799 5794 5789 5786 5782 5780 5777 5774 5772 5769 5767 5765 5763 5761 5759 5758 5757 5755 5754 5753 5752 5751 5750 5749 5749 5749
5836 5820 5813 5822 5824 5829 5844 5848 5847 5840 5834 5848 5844 5819 5808 5823 5835 5835 5831 5826 5821 5816 5809 5802 5796 5791 5786 5782 5779 5776 5773 5770 5768 5766 5764 5762 5760 5758 5756 5755 5754 5752 5751 5750 5749 5749 5748 5748 5748
5839 5811 5807 5821 5828 5834 5845 5841 5845 5851 5844 5841 5840 5830 5826 5831 5833 5827 5822 5818 5815 5812 5808 5803 5798 5793 5789 5784 5779 5774 5771 5769 5767 5764 5763 5761 5760 5759 5756 5755 5753 5751 5750 5749 5748 5747 5747 5747 5747
5826 5804 5815 5833 5839 5838 5841 5840 5841 5839 5831 5828 5828 5830 5832 5830 5827 5820 5815 5810 5808 5805 5805 5803 5798 5794 5790 5786 5779 5775 5772 5768 5766 5765 5763 5761 5760 5759 5757 5754 5752 5750 5749 5748 5747 5746 5746 5746 5747
5825 5813 5828 5837 5842 5842 5837 5838 5843 5832 5821 5824 5820 5820 5825 5825 5822 5818 5815 5813 5809 5806 5803 5801 5797 5793 5789 5785 5779 5776 5773 5768 5766 5764 5762 5761 5759 5757 5755 5753 5750 5749 5748 5747 5746 5745 5746 5747 5748
5824 5828 5834 5834 5840 5837 5834 5835 5833 5831 5827 5836 5833 5828 5824 5820 5819 5817 5814 5812 5809 5805 5801 5799 5796 5791 5787 5784 5780 5776 5773 5768 5766 5763 5761 5759 5757 5756 5754 5752 5751 5749 5748 5747 5746 5745 5746 5747 5747
5821 5825 5833 5836 5837 5835 5834 5830 5828 5827 5836 5838 5833 5827 5820 5820 5820 5818 5816 5811 5807 5802 5799 5796 5793 5788 5784 5781 5778 5775 5771 5768 5764 5761 5759 5757 5755 5753 5752 5751 5749 5748 5748 5747 5745 5745 5745 5746 5746
5825 5827 5830 5833 5832 5832 5825 5826 5826 5826 5835 5831 5826 5822 5819 5819 5818 5814 5811 5807 5803 5800 5796 5794 5790 5786 5781 5777 5774 5771 5768 5765 5762 5759 5756 5754 5753 5751 5750 5748 5747 5747 5746 5745 5744 5744 5743 5743 5743
5827 5818 5818 5825 5827 5828 5824 5811 5818 5828 5829 5822 5822 5821 5820 5819 5817 5812 5809 5805 5802 5798 5795 5791 5787 5783 5778 5774 5772 5769 5766 5763 5760 5757 5753 5751 5749 5748 5747 5745 5744 5744 5744 5743 5742 5742 5741 5741 5741
5815 5804 5795 5814 5822 5826 5811 5793 5817 5829 5822 5816 5817 5817 5813 5811 5811 5810 5808 5804 5801 5796 5791 5787 5786 5780 5775 5771 5768 5765 5763 5760 5757 5754 5751 5748 5746 5745 5744 5742 5742 5742 5741 5741 5739 5739 5737 5737 5736
5793 5783 5785 5804 5822 5820 5809 5798 5814 5825 5819 5812 5813 5812 5809 5807 5806 5805 5804 5801 5797 5793 5788 5783 5780 5775 5771 5767 5764 5761 5759 5757 5754 5751 5748 5746 5744 5742 5741 5740 5739 5739 5739 5738 5737 5736 5734 5732 5732
5780 5783 5788 5796 5813 5812 5804 5803 5812 5821 5818 5813 5811 5809 5806 5803 5802 5803 5801 5798 5794 5790 5785 5779 5775 5772 5768 5764 5760 5757 5754 5752 5750 5748 5745 5743 5741 5739 5738 5737 5737 5737 5735 5734 5733 5732 5731 5730 5730
5797 5791 5789 5801 5819 5810 5802 5802 5808 5813 5812 5808 5806 5803 5801 5799 5801 5800 5797 5793 5789 5784 5779 5775 5771 5768 5764 5760 5755 5751 5747 5747 5746 5744 5743 5740 5738 5736 5735 5734 5733 5733 5731 5730 5730 5728 5726 5726 5727
5796 5788 5790 5803 5815 5808 5800 5799 5806 5807 5804 5802 5800 5798 5796 5794 5793 5791 5789 5786 5783 5778 5775 5771 5767 5764 5760 5757 5753 5750 5747 5744 5743 5741 5739 5737 5735 5733 5732 5731 5729 5729 5728 5726 5725 5724 5721 5722 5723
5791 5787 5789 5792 5802 5805 5795 5786 5790 5798 5800 5796 5795 5795 5792 5790 5785 5783 5782 5779 5777 5773 5770 5768 5764 5760 5756 5753 5750 5746 5743 5740 5738 5736 5735 5734 5732 5731 5729 5728 5727 5726 5725 5722 5721 5720 5717 5715 5718
5779 5796 5796 5791 5783 5777 5784 5762 5775 5783 5784 5784 5785 5785 5784 5785 5782 5778 5776 5773 5771 5768 5767 5764 5760 5756 5752 5749 5745 5740 5736 5733 5733 5732 5731 5730 5729 5728 5726 5725 5723 5722 5721 5719 5718 5717 5716 5714 5711
5787 5799 5793 5788 5780 5774 5779 5763 5762 5777 5770 5773 5777 5779 5778 5777 5776 5772 5770 5769 5768 5765 5762 5760 5755 5751 5748 5744 5741 5737 5734 5732 5731 5730 5727 5726 5725 5724 5723 5721 5719 5718 5717 5716 5715 5714 5712 5711 5709
5794 5788 5784 5783 5775 5753 5766 5759 5753 5767 5768 5769 5772 5773 5772 5771 5770 5765 5765 5765 5763 5761 5758 5755 5749 5745 5743 5740 5737 5734 5730 5729 5727 5725 5722 5721 5720 5719 5718 5717 5716 5714 5713 5712 5711 5710 5709 5708 5707
5782 5762 5743 5740 5742 5745 5767 5758 5752 5767 5774 5771 5766 5765 5767 5766 5764 5759 5757 5756 5755 5754 5751 5748 5744 5740 5738 5736 5733 5731 5728 5726 5723 5721 5718 5717 5715 5714 5714 5714 5712 5710 5709 5709 5708 5707 5706 5705 5703
5770 5761 5736 5723 5731 5744 5758 5746 5751 5766 5771 5770 5765 5763 5762 5760 5759 5755 5752 5751 5749 5747 5745 5742 5738 5735 5733 5731 5728 5727 5724 5722 5720 5718 5716 5715 5713 5712 5711 5709 5708 5706 5705 5705 5704 5703 5702 5702 5701
5762 5761 5769 5750 5745 5739 5746 5748 5748 5760 5758 5757 5756 5755 5754 5752 5750 5750 5748 5746 5744 5741 5739 5736 5733 5729 5727 5725 5723 5721 5719 5718 5716 5715 5714 5712 5710 5710 5707 5705 5703 5702 5701 5701 5700 5699 5698 5698 5697
5771 5767 5757 5742 5721 5718 5734 5737 5732 5737 5740 5743 5744 5748 5748 5747 5745 5744 5742 5740 5738 5736 5734 5731 5728 5724 5722 5720 5718 5717 5715 5713 5711 5710 5709 5708 5707 5705 5703 5701 5699 5698 5697 5697 5696 5694 5694 5693 5692
5756 5754 5750 5743 5737 5717 5712 5723 5746 5739 5738 5736 5738 5742 5743 5741 5739 5738 5736 5735 5733 5731 5728 5725 5722 5719 5716 5714 5713 5711 5709 5708 5707 5705 5704 5703 5701 5700 5698 5697 5695 5694 5693 5692 5691 5690 5690 5689 5689
5755 5748 5743 5723 5721 5725 5717 5719 5747 5742 5742 5738 5737 5738 5737 5735 5733 5731 5729 5727 5726 5723 5720 5718 5716 5713 5711 5709 5708 5706 5705 5703 5701 5699 5698 5698 5696 5695 5695 5693 5692 5690 5689 5689 5687 5686 5686 5685 5685